Hourly Data Report for September 29, 2017

All times are specified in Local Standard Time (LST). Add 1 hour to adjust for Daylight Saving Time where and when it is observed.

NORTH CAPE
PRINCE EDWARD ISLAND

47°03'29.000" N
63°59'55.000" W
7.60 m
8300516
71987
WNE

Download Data

Hourly Data (September 2017)
Hourly Data Report for September 29, 2017
Temp Definition
°C
Dew Point Temp Definition
°C
Rel Hum Definition
%
Wind Dir Definition
10's deg

Wind Spd Definition
km/h
Visibility Definition
km
Stn Press Definition
kPa
Hmdx Definition


Wind Chill Definition


Weather Definition


TIME
00:00 12.0 7.1 72 30 46   100.21     LegendNANA
01:00 11.5 7.0 74 30 49   100.26     LegendNANA
02:00 11.2 7.2 76 29 46   100.29     LegendNANA
03:00 11.0 6.8 75 29 45   100.29     LegendNANA
04:00 11.1 6.7 75 30 43   100.32     LegendNANA
05:00 10.8 5.2 68 31 46   100.35     LegendNANA
06:00 10.6 5.6 71 31 47   100.40     LegendNANA
07:00 10.5 5.5 71 32 46   100.48     LegendNANA
08:00 10.2 4.9 70 32 39   100.59     LegendNANA
09:00 10.1 5.0 71 33 39   100.64     LegendNANA
10:00 9.8 5.9 76 33 37   100.73     LegendNANA
11:00 8.9 6.4 85 34 36   100.83     LegendNANA
12:00 10.2 6.5 78 35 39   100.87     LegendNANA
13:00 9.7 6.4 80 36 38   100.93     LegendNANA
14:00 10.2 5.9 75 35 38   101.01     LegendNANA
15:00 10.2 5.8 74 36 33   101.09     LegendNANA
16:00 10.1 6.1 76 35 36   101.13     LegendNANA
17:00 9.8 5.5 74 36 37   101.22     LegendNANA
18:00 9.7 5.2 74 36 43   101.29     LegendNANA
19:00 9.6 5.5 75 36 41   101.38     LegendNANA
20:00 9.8 5.4 74 1 40   101.46     LegendNANA
21:00 9.8 4.8 71 1 37   101.52     LegendNANA
22:00 10.1 4.2 67 1 38   101.56     LegendNANA
23:00 9.9 4.3 69 36 33   101.63     LegendNANA

Notes on Data Quality.

Legend

  • E = Estimated
  • M = Missing
  • NA = Not Available
  • ‡ = Partner data that is not subject to review by the National Climate Archives
Date modified: